Date String (YYYY-MM-DD hh:mm:ss) UTC,Instrument flags,absolute air pressure of the measurement (hPa),sample flow rate (lpm),inlet stack bypass flow (lpm),air temperature of the measurement (°C),ambient temperature measured by the external sensor (°C),aerosol sample conditioner tube jacket temperature (°C),OPC LED temperature (°C),internal box temperature (°C),relative humidity of the measurement (%),span deviation,mass concentration of particles derived from Lorenz-Mie calculation of OPC scattering (μg/m³),mass concentration of particles derived from Lorenz-Mie calculation of OPC scattering (μg/m³),mass concentration of particles derived from Lorenz-Mie calculation of OPC scattering (μg/m³)
DateTimeUTC,F1_M11,P_M11,Q1_M11,Q2_M11,T1_M11,T2_M11,T3_M11,T4_M11,T5_M11,U1_M11,ZSPAN_M11,X2_M11,X0_M11,X1_M11
2023-08-30 01:00:00,SystemResetWarning,0835.9,5.01,000.00,027.8,025.6,000.0,036.1,029.4,27.7,0000.0,0004.71,0010.56,0004.18
2023-08-30 01:01:00,SystemResetWarning,0835.9,5.00,000.00,027.8,026.0,000.0,036.1,029.6,27.9,0000.0,0004.70,0010.55,0004.17
2023-08-30 01:02:00,SystemResetWarning,0835.8,4.99,000.00,027.9,026.3,000.0,036.1,029.7,28.1,0000.0,0004.70,0011.04,0004.16
2023-08-30 01:03:00,SystemResetWarning,0835.9,4.99,000.00,027.9,026.7,000.0,036.2,029.8,27.6,0000.0,0004.69,0011.05,0004.16
2023-08-30 01:04:00,SystemResetWarning,0835.8,5.00,000.00,028.0,026.5,000.0,036.2,029.7,27.4,0000.0,0004.72,0010.98,0004.15
2023-08-30 01:05:00,SystemResetWarning,0835.8,5.00,000.00,027.9,024.9,000.0,036.1,029.4,27.5,0000.0,0004.74,0010.97,0004.14
2023-08-30 01:06:00,SystemResetWarning,0835.8,5.00,000.00,027.8,023.9,000.0,036.0,029.2,27.6,0000.0,0004.72,0011.22,0004.14
2023-08-30 01:07:00,SystemResetWarning,0835.7,5.01,000.00,027.8,024.0,000.0,036.0,029.1,27.8,0000.0,0004.74,0011.22,0004.14
2023-08-30 01:08:00,SystemResetWarning,0835.7,5.00,000.00,027.7,024.3,000.0,036.0,029.1,28.0,0000.0,0004.78,0010.86,0004.15
2023-08-30 01:09:00,SystemResetWarning,0835.8,4.99,000.00,027.7,024.8,000.0,036.0,029.2,28.0,0000.0,0004.76,0010.18,0004.16
2023-08-30 01:10:00,SystemResetWarning,0835.8,5.00,000.00,027.7,025.3,000.0,036.1,029.4,27.9,0000.0,0004.73,0009.54,0004.15
2023-08-30 01:11:00,SystemResetWarning,0835.8,5.02,000.00,027.8,025.7,000.0,036.1,029.5,27.8,0000.0,0004.72,0009.08,0004.14
2023-08-30 01:12:00,SystemResetWarning,0835.8,5.00,000.00,027.8,026.1,000.0,036.1,029.6,27.7,0000.0,0004.74,0009.01,0004.13
2023-08-30 01:13:00,SystemResetWarning,0835.7,4.99,000.00,027.9,026.5,000.0,036.2,029.7,27.4,0000.0,0004.73,0008.50,0004.13
2023-08-30 01:14:00,SystemResetWarning,0835.7,5.00,000.00,028.0,026.7,000.0,036.2,029.8,27.0,0000.0,0004.71,0008.47,0004.13
2023-08-30 01:15:00,SystemResetWarning,0835.6,4.98,000.00,028.0,026.0,000.0,036.1,029.6,26.9,0000.0,0004.68,0008.43,0004.14
2023-08-30 01:16:00,SystemResetWarning,0835.7,5.00,000.00,027.9,024.4,000.0,036.0,029.3,27.0,0000.0,0004.64,0008.31,0004.15
2023-08-30 01:17:00,SystemResetWarning,0835.6,5.00,000.00,027.8,023.8,000.0,036.0,029.1,27.2,0000.0,0004.64,0008.14,0004.16
2023-08-30 01:18:00,SystemResetWarning,0835.6,5.02,000.00,027.7,024.0,000.0,036.0,028.9,27.3,0000.1,0004.66,0008.78,0004.18
2023-08-30 01:19:00,SystemResetWarning,0835.6,5.00,000.00,027.7,024.4,000.0,036.0,029.0,27.6,0002.9,0004.65,0009.03,0004.18
2023-08-30 01:20:00,SystemResetWarning,0835.6,5.00,000.00,027.7,024.9,000.0,036.0,029.2,27.7,0002.6,0004.65,0009.24,0004.18
2023-08-30 01:21:00,SystemResetWarning,0835.6,5.00,000.00,027.7,025.4,000.0,036.1,029.4,27.8,0002.4,0004.65,0009.33,0004.18
2023-08-30 01:22:00,SystemResetWarning,0835.6,5.00,000.00,027.8,025.8,000.0,036.1,029.5,28.0,0002.7,0004.61,0009.39,0004.18
2023-08-30 01:23:00,SystemResetWarning,0835.8,5.00,000.00,027.8,026.2,000.0,036.1,029.6,27.9,0002.9,0004.59,0009.39,0004.19
2023-08-30 01:24:00,SystemResetWarning,0835.7,4.99,000.00,027.9,026.5,000.0,036.1,029.7,27.8,0002.5,0004.61,0009.86,0004.21
2023-08-30 01:25:00,SystemResetWarning,0835.7,5.00,000.00,027.9,026.6,000.0,036.2,029.7,27.8,0002.0,0004.67,0010.38,0004.23
2023-08-30 01:26:00,SystemResetWarning,0835.6,4.98,000.00,027.9,025.4,000.0,036.1,029.4,27.9,0001.7,0004.67,0010.46,0004.23
2023-08-30 01:27:00,SystemResetWarning,0835.6,5.01,000.00,027.8,024.0,000.0,036.0,029.1,28.1,0001.6,0004.72,0010.87,0004.23
2023-08-30 01:28:00,SystemResetWarning,0835.6,5.02,000.00,027.7,023.8,000.0,035.9,029.0,28.2,0001.5,0004.75,0010.91,0004.25
2023-08-30 01:29:00,SystemResetWarning,0835.6,5.00,000.00,027.6,024.1,000.0,036.0,028.9,28.3,0001.1,0004.74,0010.51,0004.26
2023-08-30 01:30:00,SystemResetWarning,0835.6,5.00,000.00,027.6,024.5,000.0,036.0,029.1,28.5,0000.6,0004.74,0010.57,0004.27
2023-08-30 01:31:00,SystemResetWarning,0835.6,5.00,000.00,027.6,025.0,000.0,036.0,029.2,28.9,0000.7,0004.76,0011.18,0004.29
2023-08-30 01:32:00,SystemResetWarning,0835.6,5.00,000.00,027.7,025.4,000.0,036.0,029.4,28.9,0000.5,0004.78,0011.14,0004.30
2023-08-30 01:33:00,SystemResetWarning,0835.7,5.00,000.00,027.7,025.9,000.0,036.1,029.5,29.6,0000.4,0004.82,0011.26,0004.32
2023-08-30 01:34:00,SystemResetWarning,0835.7,4.99,000.00,027.8,026.2,000.0,036.1,029.6,30.4,0000.1,0004.84,0011.80,0004.33
2023-08-30 01:35:00,SystemResetWarning,0835.7,5.00,000.00,027.9,026.5,000.0,036.1,029.7,31.6,-000.3,0004.88,0012.06,0004.35
2023-08-30 01:36:00,SystemResetWarning,0835.7,5.00,000.00,027.9,026.7,000.0,036.2,029.7,31.8,-000.1,0004.89,0012.00,0004.37
2023-08-30 01:37:00,SystemResetWarning,0835.7,4.98,000.00,027.9,025.7,000.0,036.1,029.6,32.0,0000.4,0004.93,0011.76,0004.38
2023-08-30 01:38:00,SystemResetWarning,0835.6,5.00,000.00,027.9,024.2,000.0,036.0,029.2,32.2,0000.5,0004.91,0011.48,0004.39
2023-08-30 01:39:00,SystemResetWarning,0835.6,5.01,000.00,027.7,023.7,000.0,035.9,029.0,32.3,0000.6,0004.91,0011.81,0004.40
2023-08-30 01:40:00,SystemResetWarning,0835.7,5.01,000.00,027.6,023.9,000.0,035.9,028.9,32.5,0000.5,0004.92,0012.23,0004.41
2023-08-30 01:41:00,SystemResetWarning,0835.7,5.00,000.00,027.6,024.3,000.0,036.0,029.0,33.0,0000.7,0004.95,0012.22,0004.43
2023-08-30 01:42:00,SystemResetWarning,0835.6,5.00,000.00,027.6,024.8,000.0,036.0,029.2,32.8,0000.3,0004.97,0011.02,0004.44
2023-08-30 01:43:00,SystemResetWarning,0835.7,5.00,000.00,027.6,025.3,000.0,036.0,029.3,32.3,0000.1,0004.98,0010.99,0004.45
2023-08-30 01:44:00,SystemResetWarning,0835.7,5.00,000.00,027.7,025.7,000.0,036.0,029.4,32.1,0000.3,0005.01,0010.91,0004.47
2023-08-30 01:45:00,SystemResetWarning,0835.7,5.00,000.00,027.8,026.1,000.0,036.1,029.5,31.9,0000.7,0005.04,0010.38,0004.50
2023-08-30 01:46:00,SystemResetWarning,0835.7,5.00,000.00,027.8,026.4,000.0,036.1,029.6,31.6,0000.8,0005.04,0010.89,0004.52
2023-08-30 01:47:00,SystemResetWarning,0835.7,5.00,000.00,027.9,026.7,000.0,036.2,029.7,31.4,0001.2,0005.04,0010.57,0004.53
2023-08-30 01:48:00,SystemResetWarning,0835.7,5.00,000.00,027.9,026.7,000.0,036.2,029.7,31.5,0001.3,0005.04,0010.79,0004.54
2023-08-30 01:49:00,SystemResetWarning,0835.7,4.98,000.00,027.9,025.2,000.0,036.1,029.5,31.4,0001.2,0005.05,0011.76,0004.55
2023-08-30 01:50:00,SystemResetWarning,0835.7,5.00,000.00,027.8,023.9,000.0,036.0,029.2,31.3,0000.7,0005.09,0011.78,0004.56
2023-08-30 01:51:00,SystemResetWarning,0835.7,5.01,000.00,027.7,023.6,000.0,035.9,029.0,31.3,0001.3,0005.11,0011.77,0004.56
2023-08-30 01:52:00,SystemResetWarning,0835.7,5.01,000.00,027.6,023.9,000.0,035.9,028.9,31.2,0001.0,0005.14,0011.95,0004.57
2023-08-30 01:53:00,SystemResetWarning,0835.7,5.00,000.00,027.6,024.4,000.0,036.0,029.0,31.3,0000.8,0005.16,0012.37,0004.57
2023-08-30 01:54:00,SystemResetWarning,0835.8,5.00,000.00,027.6,024.9,000.0,036.0,029.2,31.3,0000.9,0005.20,0012.43,0004.58
2023-08-30 01:55:00,SystemResetWarning,0835.7,5.00,000.00,027.7,025.4,000.0,036.0,029.3,31.3,0001.0,0005.28,0012.86,0004.64
2023-08-30 01:56:00,SystemResetWarning,0835.7,4.99,000.00,027.7,025.8,000.0,036.1,029.4,31.2,0000.4,0005.31,0013.09,0004.67
2023-08-30 01:57:00,SystemResetWarning,0835.8,5.00,000.00,027.7,026.1,000.0,036.1,029.5,31.0,0000.1,0005.50,0013.37,0004.82
2023-08-30 01:58:00,SystemResetWarning,0835.8,5.01,000.00,027.8,026.4,000.0,036.1,029.6,30.7,0000.0,0005.78,0013.59,0005.05
2023-08-30 01:59:00,SystemResetWarning,0835.8,5.00,000.00,027.9,026.6,000.0,036.2,029.7,30.6,0000.1,0005.97,0014.06,0005.23
